Time,TemperatureF,DewpointF,PressureIn,WindDirection,WindDirectionDegrees,WindSpeedMPH,WindSpeedGustMPH,Humidity,HourlyPrecipIn,Conditions,Clouds,dailyrainin,SoftwareType,DateUTC
2013-02-16 00:00:00,29.9,28.1,29.96,North,354,0.0,0.0,93,0.00,,,0.00,WeatherCatV1.11B39,2013-02-16 05:00:00,
2013-02-16 00:05:00,29.6,27.8,29.96,North,354,0.0,0.0,93,0.00,,,0.00,WeatherCatV1.11B39,2013-02-16 05:05:00,
2013-02-16 00:10:00,29.5,27.7,29.96,North,352,0.0,0.0,93,0.00,,,0.00,WeatherCatV1.11B39,2013-02-16 05:10:00,
2013-02-16 00:15:00,29.3,27.5,29.97,North,353,0.0,0.0,93,0.00,,,0.00,WeatherCatV1.11B39,2013-02-16 05:15:00,
2013-02-16 00:20:00,29.2,27.7,29.97,North,354,0.0,0.0,94,0.00,,,0.00,WeatherCatV1.11B39,2013-02-16 05:20:00,
2013-02-16 00:25:00,29.5,28.2,29.97,North,352,0.0,0.0,95,0.00,,,0.00,WeatherCatV1.11B39,2013-02-16 05:25:00,
2013-02-16 00:30:00,29.4,27.9,29.96,North,354,0.0,0.0,94,0.00,,,0.00,WeatherCatV1.11B39,2013-02-16 05:30:00,
2013-02-16 00:35:00,29.6,28.3,29.97,North,352,0.0,0.0,95,0.00,,,0.00,WeatherCatV1.11B39,2013-02-16 05:35:00,
2013-02-16 00:40:00,30.2,29.2,29.97,North,354,0.0,0.0,96,0.00,,,0.00,WeatherCatV1.11B39,2013-02-16 05:40:00,
2013-02-16 00:45:00,30.5,29.5,29.97,SW,236,1.0,1.0,96,0.00,,,0.00,WeatherCatV1.11B39,2013-02-16 05:45:00,
2013-02-16 00:50:00,30.7,29.7,29.96,SW,236,0.0,0.0,96,0.00,,,0.00,WeatherCatV1.11B39,2013-02-16 05:50:00,
2013-02-16 00:55:00,30.5,29.2,29.96,SW,236,0.0,0.0,95,0.00,,,0.00,WeatherCatV1.11B39,2013-02-16 05:55:00,
2013-02-16 01:00:00,30.4,29.1,29.96,SW,236,0.0,0.0,95,0.00,,,0.00,WeatherCatV1.11B39,2013-02-16 06:00:00,
2013-02-16 01:05:00,30.4,29.1,29.96,SW,236,0.0,1.0,95,0.00,,,0.00,WeatherCatV1.11B39,2013-02-16 06:05:00,
2013-02-16 01:10:00,30.4,29.1,29.97,SW,236,0.0,0.0,95,0.00,,,0.00,WeatherCatV1.11B39,2013-02-16 06:10:00,
2013-02-16 01:15:00,30.4,29.1,29.97,SW,236,0.0,0.0,95,0.00,,,0.00,WeatherCatV1.11B39,2013-02-16 06:15:00,
2013-02-16 01:20:00,30.7,29.7,29.96,SW,236,0.0,0.0,96,0.00,,,0.00,WeatherCatV1.11B39,2013-02-16 06:20:00,
2013-02-16 01:25:00,30.4,29.1,29.97,SW,236,0.0,0.0,95,0.00,,,0.00,WeatherCatV1.11B39,2013-02-16 06:25:00,
2013-02-16 01:30:00,30.2,28.9,29.97,SW,236,0.0,0.0,95,0.00,,,0.00,WeatherCatV1.11B39,2013-02-16 06:30:00,
2013-02-16 01:35:00,30.4,29.4,29.97,SW,236,0.0,0.0,96,0.00,,,0.00,WeatherCatV1.11B39,2013-02-16 06:35:00,
2013-02-16 01:40:00,30.3,29.3,29.97,SW,236,0.0,0.0,96,0.00,,,0.00,WeatherCatV1.11B39,2013-02-16 06:40:00,
2013-02-16 01:45:00,30.3,29.3,29.97,SW,236,0.0,0.0,96,0.00,,,0.00,WeatherCatV1.11B39,2013-02-16 06:45:00,
2013-02-16 01:50:00,30.3,29.3,29.97,SW,236,0.0,0.0,96,0.00,,,0.00,WeatherCatV1.11B39,2013-02-16 06:50:00,
2013-02-16 01:55:00,30.2,28.9,29.96,SW,236,0.0,0.0,95,0.00,,,0.00,WeatherCatV1.11B39,2013-02-16 06:55:00,
2013-02-16 02:00:00,30.2,28.9,29.96,SW,236,0.0,0.0,95,0.00,,,0.00,WeatherCatV1.11B39,2013-02-16 07:00:00,
2013-02-16 02:05:00,30.2,28.9,29.95,SW,236,0.0,0.0,95,0.00,,,0.00,WeatherCatV1.11B39,2013-02-16 07:05:00,
2013-02-16 02:10:00,30.2,28.9,29.95,SW,236,0.0,0.0,95,0.00,,,0.00,WeatherCatV1.11B39,2013-02-16 07:10:00,
2013-02-16 02:15:00,30.2,28.9,29.95,SW,236,0.0,0.0,95,0.00,,,0.00,WeatherCatV1.11B39,2013-02-16 07:15:00,
2013-02-16 02:20:00,30.9,29.9,29.95,SW,236,0.0,0.0,96,0.00,,,0.00,WeatherCatV1.11B39,2013-02-16 07:20:00,
2013-02-16 02:25:00,31.4,30.4,29.95,SW,226,0.0,0.0,96,0.00,,,0.00,WeatherCatV1.11B39,2013-02-16 07:25:00,
2013-02-16 02:30:00,31.6,30.6,29.95,SW,226,0.0,0.0,96,0.00,,,0.00,WeatherCatV1.11B39,2013-02-16 07:30:00,
2013-02-16 02:35:00,31.8,30.8,29.95,SW,227,0.0,0.0,96,0.00,,,0.00,WeatherCatV1.11B39,2013-02-16 07:35:00,
2013-02-16 02:40:00,31.9,30.9,29.95,SW,226,0.0,0.0,96,0.00,,,0.00,WeatherCatV1.11B39,2013-02-16 07:40:00,
2013-02-16 02:45:00,32.1,31.1,29.95,SW,226,0.0,0.0,96,0.00,,,0.00,WeatherCatV1.11B39,2013-02-16 07:45:00,
2013-02-16 02:50:00,32.2,31.2,29.95,SW,226,0.0,0.0,96,0.00,,,0.00,WeatherCatV1.11B39,2013-02-16 07:50:00,
2013-02-16 02:55:00,32.3,31.3,29.94,SW,226,0.0,0.0,96,0.00,,,0.00,WeatherCatV1.11B39,2013-02-16 07:55:00,
2013-02-16 03:00:00,32.2,30.9,29.93,SW,226,0.0,0.0,95,0.00,,,0.00,WeatherCatV1.11B39,2013-02-16 08:00:00,
2013-02-16 03:05:00,31.9,30.6,29.93,SSW,196,0.0,1.0,95,0.00,,,0.00,WeatherCatV1.11B39,2013-02-16 08:05:00,
2013-02-16 03:10:00,32.1,31.1,29.94,SSW,202,0.0,0.0,96,0.00,,,0.00,WeatherCatV1.11B39,2013-02-16 08:10:00,
2013-02-16 03:15:00,32.4,31.4,29.95,SSW,201,0.0,0.0,96,0.00,,,0.00,WeatherCatV1.11B39,2013-02-16 08:15:00,
2013-02-16 03:20:00,32.6,31.6,29.95,ESE,113,0.0,0.0,96,0.00,,,0.00,WeatherCatV1.11B39,2013-02-16 08:20:00,
2013-02-16 03:25:00,32.7,31.4,29.95,SSW,203,0.0,0.0,95,0.00,,,0.00,WeatherCatV1.11B39,2013-02-16 08:25:00,
2013-02-16 03:30:00,32.8,31.5,29.96,SW,224,0.0,1.0,95,0.00,,,0.00,WeatherCatV1.11B39,2013-02-16 08:30:00,
2013-02-16 03:35:00,32.8,31.5,29.96,SW,224,1.0,1.0,95,0.00,,,0.00,WeatherCatV1.11B39,2013-02-16 08:35:00,
2013-02-16 03:40:00,32.9,31.6,29.95,SW,228,0.0,1.0,95,0.00,,,0.00,WeatherCatV1.11B39,2013-02-16 08:40:00,
2013-02-16 03:45:00,33.2,31.1,29.94,NNE,12,0.0,7.0,92,0.00,,,0.00,WeatherCatV1.11B39,2013-02-16 08:45:00,
2013-02-16 03:50:00,33.7,30.2,29.94,NNE,12,0.0,3.0,87,0.00,,,0.00,WeatherCatV1.11B39,2013-02-16 08:50:00,
2013-02-16 03:55:00,34.0,30.0,29.96,WSW,245,0.0,2.0,85,0.00,,,0.00,WeatherCatV1.11B39,2013-02-16 08:55:00,
2013-02-16 04:00:00,34.2,29.6,29.95,WNW,296,3.0,3.0,83,0.00,,,0.00,WeatherCatV1.11B39,2013-02-16 09:00:00,
2013-02-16 04:05:00,34.4,29.2,29.95,NE,53,1.0,3.0,81,0.00,,,0.00,WeatherCatV1.11B39,2013-02-16 09:05:00,
2013-02-16 04:10:00,34.6,29.1,29.95,NNW,336,3.0,4.0,80,0.00,,,0.00,WeatherCatV1.11B39,2013-02-16 09:10:00,
2013-02-16 04:15:00,34.7,28.9,29.94,NW,321,2.0,4.0,79,0.00,,,0.00,WeatherCatV1.11B39,2013-02-16 09:15:00,
2013-02-16 04:20:00,34.7,28.9,29.95,NNE,20,0.0,3.0,79,0.00,,,0.00,WeatherCatV1.11B39,2013-02-16 09:20:00,
2013-02-16 04:25:00,34.7,29.2,29.95,North,351,2.0,4.0,80,0.00,,,0.00,WeatherCatV1.11B39,2013-02-16 09:25:00,
2013-02-16 04:30:00,34.7,29.2,29.95,North,354,1.0,2.0,80,0.00,,,0.00,WeatherCatV1.11B39,2013-02-16 09:30:00,
2013-02-16 04:35:00,34.6,29.1,29.95,SSW,206,1.0,4.0,80,0.00,,,0.00,WeatherCatV1.11B39,2013-02-16 09:35:00,
2013-02-16 04:40:00,34.6,29.4,29.95,West,278,1.0,3.0,81,0.00,,,0.00,WeatherCatV1.11B39,2013-02-16 09:40:00,
2013-02-16 04:45:00,34.6,29.4,29.95,NNW,346,0.0,5.0,81,0.00,,,0.00,WeatherCatV1.11B39,2013-02-16 09:45:00,
2013-02-16 04:50:00,34.5,29.6,29.95,NNE,20,0.0,3.0,82,0.00,,,0.00,WeatherCatV1.11B39,2013-02-16 09:50:00,
2013-02-16 04:55:00,34.4,29.8,29.95,North,356,1.0,2.0,83,0.00,,,0.00,WeatherCatV1.11B39,2013-02-16 09:55:00,
2013-02-16 05:00:00,34.3,29.7,29.95,North,5,1.0,1.0,83,0.00,,,0.00,WeatherCatV1.11B39,2013-02-16 10:00:00,
2013-02-16 05:05:00,34.2,29.9,29.94,NNW,337,1.0,5.0,84,0.00,,,0.00,WeatherCatV1.11B39,2013-02-16 10:05:00,
2013-02-16 05:10:00,34.1,29.8,29.94,North,11,4.0,4.0,84,0.00,,,0.00,WeatherCatV1.11B39,2013-02-16 10:10:00,
2013-02-16 05:15:00,34.1,30.1,29.94,NNE,25,3.0,3.0,85,0.00,,,0.00,WeatherCatV1.11B39,2013-02-16 10:15:00,
2013-02-16 05:20:00,34.0,30.0,29.94,ENE,61,0.0,2.0,85,0.00,,,0.00,WeatherCatV1.11B39,2013-02-16 10:20:00,
2013-02-16 05:25:00,34.0,30.0,29.95,North,356,1.0,4.0,85,0.00,,,0.00,WeatherCatV1.11B39,2013-02-16 10:25:00,
2013-02-16 05:30:00,33.9,30.2,29.95,NNE,16,3.0,3.0,86,0.00,,,0.00,WeatherCatV1.11B39,2013-02-16 10:30:00,
2013-02-16 05:35:00,33.8,30.1,29.95,SE,138,0.0,2.0,86,0.00,,,0.00,WeatherCatV1.11B39,2013-02-16 10:35:00,
2013-02-16 05:40:00,33.7,30.2,29.95,NNW,335,0.0,7.0,87,0.00,,,0.00,WeatherCatV1.11B39,2013-02-16 10:40:00,
2013-02-16 05:45:00,33.7,30.2,29.95,SW,222,1.0,1.0,87,0.00,,,0.00,WeatherCatV1.11B39,2013-02-16 10:45:00,
2013-02-16 05:50:00,33.5,30.3,29.95,West,271,1.0,1.0,88,0.00,,,0.00,WeatherCatV1.11B39,2013-02-16 10:50:00,
2013-02-16 05:55:00,33.5,30.3,29.95,SW,215,2.0,6.0,88,0.00,,,0.00,WeatherCatV1.11B39,2013-02-16 10:55:00,
2013-02-16 06:00:00,33.3,30.1,29.95,North,6,1.0,3.0,88,0.00,,,0.00,WeatherCatV1.11B39,2013-02-16 11:00:00,
2013-02-16 06:05:00,33.3,30.4,29.95,NE,49,0.0,4.0,89,0.00,,,0.00,WeatherCatV1.11B39,2013-02-16 11:05:00,
2013-02-16 06:10:00,33.2,30.3,29.95,ESE,104,0.0,3.0,89,0.00,,,0.00,WeatherCatV1.11B39,2013-02-16 11:10:00,
2013-02-16 06:15:00,33.1,30.2,29.94,NE,41,1.0,4.0,89,0.00,,,0.00,WeatherCatV1.11B39,2013-02-16 11:15:00,
2013-02-16 06:20:00,33.0,30.4,29.95,ENE,77,1.0,1.0,90,0.00,,,0.00,WeatherCatV1.11B39,2013-02-16 11:20:00,
2013-02-16 06:25:00,32.9,30.3,29.95,West,259,1.0,6.0,90,0.00,,,0.00,WeatherCatV1.11B39,2013-02-16 11:25:00,
2013-02-16 06:30:00,32.9,30.3,29.95,WNW,293,0.0,0.0,90,0.00,,,0.00,WeatherCatV1.11B39,2013-02-16 11:30:00,
2013-02-16 06:35:00,32.9,30.3,29.95,NE,39,0.0,1.0,90,0.00,,,0.00,WeatherCatV1.11B39,2013-02-16 11:35:00,
2013-02-16 06:40:00,32.8,30.2,29.95,SW,232,2.0,4.0,90,0.00,,,0.00,WeatherCatV1.11B39,2013-02-16 11:40:00,
2013-02-16 06:45:00,32.8,30.2,29.95,NNW,337,0.0,1.0,90,0.00,,,0.00,WeatherCatV1.11B39,2013-02-16 11:45:00,
2013-02-16 06:50:00,32.8,30.2,29.95,NNW,340,2.0,2.0,90,0.00,,,0.00,WeatherCatV1.11B39,2013-02-16 11:50:00,
2013-02-16 06:55:00,32.8,30.2,29.95,SW,215,0.0,1.0,90,0.00,,,0.00,WeatherCatV1.11B39,2013-02-16 11:55:00,
2013-02-16 07:00:00,32.8,29.9,29.95,WNW,296,0.0,3.0,89,0.00,,,0.00,WeatherCatV1.11B39,2013-02-16 12:00:00,
2013-02-16 07:05:00,32.9,30.0,29.95,North,8,2.0,3.0,89,0.00,,,0.00,WeatherCatV1.11B39,2013-02-16 12:05:00,
2013-02-16 07:10:00,32.9,30.0,29.95,SW,218,0.0,2.0,89,0.00,,,0.00,WeatherCatV1.11B39,2013-02-16 12:10:00,
2013-02-16 07:15:00,32.9,30.0,29.95,West,264,1.0,2.0,89,0.00,,,0.00,WeatherCatV1.11B39,2013-02-16 12:15:00,
2013-02-16 07:20:00,32.9,30.0,29.95,NW,325,1.0,2.0,89,0.00,,,0.00,WeatherCatV1.11B39,2013-02-16 12:20:00,
2013-02-16 07:25:00,32.9,30.0,29.95,NW,311,0.0,2.0,89,0.00,,,0.00,WeatherCatV1.11B39,2013-02-16 12:25:00,
2013-02-16 07:30:00,32.9,30.0,29.95,North,350,1.0,2.0,89,0.00,,,0.00,WeatherCatV1.11B39,2013-02-16 12:30:00,
2013-02-16 07:35:00,32.8,29.9,29.96,NNE,22,0.0,2.0,89,0.00,,,0.00,WeatherCatV1.11B39,2013-02-16 12:35:00,
2013-02-16 07:40:00,32.8,29.9,29.96,NNW,339,3.0,6.0,89,0.00,,,0.00,WeatherCatV1.11B39,2013-02-16 12:40:00,
2013-02-16 07:45:00,32.7,29.8,29.95,SSW,204,1.0,6.0,89,0.00,,,0.00,WeatherCatV1.11B39,2013-02-16 12:45:00,
2013-02-16 07:50:00,32.6,30.0,29.96,NNE,18,0.0,1.0,90,0.00,,,0.00,WeatherCatV1.11B39,2013-02-16 12:50:00,
2013-02-16 07:55:00,32.6,30.3,29.96,WSW,249,1.0,3.0,91,0.00,,,0.00,WeatherCatV1.11B39,2013-02-16 12:55:00,
2013-02-16 08:00:00,32.5,30.2,29.96,NNW,348,1.0,2.0,91,0.00,,,0.00,WeatherCatV1.11B39,2013-02-16 13:00:00,
2013-02-16 08:05:00,32.4,30.1,29.96,WSW,239,1.0,3.0,91,0.00,,,0.00,WeatherCatV1.11B39,2013-02-16 13:05:00,
2013-02-16 08:10:00,32.4,30.3,29.97,NNE,19,1.0,2.0,92,0.00,,,0.00,WeatherCatV1.11B39,2013-02-16 13:10:00,
2013-02-16 08:15:00,32.4,30.3,29.97,SW,215,0.0,1.0,92,0.00,,,0.00,WeatherCatV1.11B39,2013-02-16 13:15:00,
2013-02-16 08:20:00,32.3,30.2,29.97,WNW,283,0.0,1.0,92,0.00,,,0.00,WeatherCatV1.11B39,2013-02-16 13:20:00,
2013-02-16 08:25:00,32.3,30.5,29.97,North,9,0.0,3.0,93,0.00,,,0.00,WeatherCatV1.11B39,2013-02-16 13:25:00,
2013-02-16 08:30:00,32.3,30.5,29.97,NW,310,0.0,1.0,93,0.00,,,0.00,WeatherCatV1.11B39,2013-02-16 13:30:00,
2013-02-16 08:35:00,32.4,30.6,29.97,NW,326,2.0,3.0,93,0.00,,,0.00,WeatherCatV1.11B39,2013-02-16 13:35:00,
2013-02-16 08:40:00,32.4,30.6,29.97,NNW,345,0.0,1.0,93,0.00,,,0.00,WeatherCatV1.11B39,2013-02-16 13:40:00,
2013-02-16 08:45:00,32.4,30.6,29.96,NW,312,0.0,1.0,93,0.00,,,0.00,WeatherCatV1.11B39,2013-02-16 13:45:00,
2013-02-16 08:50:00,32.4,30.6,29.96,SSW,210,0.0,1.0,93,0.00,,,0.00,WeatherCatV1.11B39,2013-02-16 13:50:00,
2013-02-16 08:55:00,32.4,30.9,29.96,NNE,18,0.0,0.0,94,0.00,,,0.00,WeatherCatV1.11B39,2013-02-16 13:55:00,
2013-02-16 09:00:00,32.5,31.0,29.96,WNW,300,0.0,3.0,94,0.00,,,0.00,WeatherCatV1.11B39,2013-02-16 14:00:00,
2013-02-16 09:05:00,32.6,31.1,29.96,North,4,0.0,2.0,94,0.00,,,0.00,WeatherCatV1.11B39,2013-02-16 14:05:00,
2013-02-16 09:10:00,32.7,31.2,29.96,North,11,0.0,2.0,94,0.00,,,0.00,WeatherCatV1.11B39,2013-02-16 14:10:00,
2013-02-16 09:15:00,32.8,31.3,29.96,North,359,0.0,1.0,94,0.00,,,0.00,WeatherCatV1.11B39,2013-02-16 14:15:00,
2013-02-16 09:20:00,33.0,31.2,29.96,SW,232,1.0,1.0,93,0.00,,,0.00,WeatherCatV1.11B39,2013-02-16 14:20:00,
2013-02-16 09:25:00,33.0,31.2,29.96,North,11,0.0,3.0,93,0.00,,,0.00,WeatherCatV1.11B39,2013-02-16 14:25:00,
2013-02-16 09:30:00,33.2,31.4,29.95,WNW,293,0.0,1.0,93,0.00,,,0.00,WeatherCatV1.11B39,2013-02-16 14:30:00,
2013-02-16 09:35:00,33.5,31.7,29.95,NNE,15,3.0,4.0,93,0.00,,,0.00,WeatherCatV1.11B39,2013-02-16 14:35:00,
2013-02-16 09:40:00,33.5,31.7,29.94,SSE,153,0.0,0.0,93,0.00,,,0.00,WeatherCatV1.11B39,2013-02-16 14:40:00,
2013-02-16 09:45:00,33.7,31.6,29.94,North,352,4.0,4.0,92,0.00,,,0.00,WeatherCatV1.11B39,2013-02-16 14:45:00,
2013-02-16 09:50:00,33.9,31.8,29.94,North,11,0.0,2.0,92,0.00,,,0.00,WeatherCatV1.11B39,2013-02-16 14:50:00,
2013-02-16 09:55:00,34.1,32.0,29.94,NW,321,1.0,4.0,92,0.00,,,0.00,WeatherCatV1.11B39,2013-02-16 14:55:00,
2013-02-16 10:00:00,33.9,31.6,29.94,NNE,13,0.0,2.0,91,0.00,,,0.00,WeatherCatV1.11B39,2013-02-16 15:00:00,
2013-02-16 10:05:00,34.1,32.0,29.94,NNW,328,0.0,0.0,92,0.00,,,0.00,WeatherCatV1.11B39,2013-02-16 15:05:00,
2013-02-16 10:10:00,34.3,32.0,29.94,SSW,197,0.0,1.0,91,0.00,,,0.00,WeatherCatV1.11B39,2013-02-16 15:10:00,
2013-02-16 10:15:00,34.6,32.2,29.94,SSW,204,0.0,1.0,91,0.00,,,0.00,WeatherCatV1.11B39,2013-02-16 15:15:00,
2013-02-16 10:20:00,34.7,32.1,29.94,North,359,0.0,2.0,90,0.00,,,0.00,WeatherCatV1.11B39,2013-02-16 15:20:00,
2013-02-16 10:25:00,34.9,32.3,29.94,North,357,2.0,3.0,90,0.00,,,0.01,WeatherCatV1.11B39,2013-02-16 15:25:00,
2013-02-16 10:30:00,35.1,32.2,29.94,NNE,19,1.0,3.0,89,0.00,,,0.01,WeatherCatV1.11B39,2013-02-16 15:30:00,
2013-02-16 10:35:00,35.1,32.2,29.95,NE,51,0.0,2.0,89,0.00,,,0.01,WeatherCatV1.11B39,2013-02-16 15:35:00,
2013-02-16 10:40:00,35.3,32.1,29.94,NNE,16,4.0,4.0,88,0.05,,,0.02,WeatherCatV1.11B39,2013-02-16 15:40:00,
2013-02-16 10:45:00,35.5,32.0,29.94,NNE,13,2.0,3.0,87,0.05,,,0.02,WeatherCatV1.11B39,2013-02-16 15:45:00,
2013-02-16 10:50:00,35.6,32.4,29.94,NNW,330,0.0,1.0,88,0.04,,,0.02,WeatherCatV1.11B39,2013-02-16 15:50:00,
2013-02-16 10:55:00,35.9,32.7,29.94,North,6,0.0,0.0,88,0.04,,,0.03,WeatherCatV1.11B39,2013-02-16 15:55:00,
2013-02-16 11:00:00,36.1,32.3,29.94,NNW,344,1.0,2.0,86,0.04,,,0.03,WeatherCatV1.11B39,2013-02-16 16:00:00,
2013-02-16 11:05:00,35.9,31.8,29.94,South,188,0.0,1.0,85,0.04,,,0.03,WeatherCatV1.11B39,2013-02-16 16:05:00,
2013-02-16 11:10:00,35.9,32.1,29.94,SW,224,0.0,1.0,86,0.00,,,0.03,WeatherCatV1.11B39,2013-02-16 16:10:00,
2013-02-16 11:15:00,35.8,31.4,29.94,NNE,16,0.0,1.0,84,0.00,,,0.03,WeatherCatV1.11B39,2013-02-16 16:15:00,
2013-02-16 11:20:00,35.8,31.7,29.94,NNW,340,1.0,2.0,85,0.00,,,0.03,WeatherCatV1.11B39,2013-02-16 16:20:00,
2013-02-16 11:25:00,35.9,31.8,29.94,NW,321,0.0,0.0,85,0.00,,,0.03,WeatherCatV1.11B39,2013-02-16 16:25:00,
2013-02-16 11:30:00,36.3,31.9,29.93,SSW,205,0.0,0.0,84,0.00,,,0.04,WeatherCatV1.11B39,2013-02-16 16:30:00,
2013-02-16 11:35:00,36.4,31.4,29.93,ENE,72,1.0,3.0,82,0.00,,,0.04,WeatherCatV1.11B39,2013-02-16 16:35:00,
2013-02-16 11:40:00,36.3,31.0,29.93,North,356,0.0,2.0,81,0.00,,,0.04,WeatherCatV1.11B39,2013-02-16 16:40:00,
2013-02-16 11:45:00,36.3,31.0,29.93,West,270,0.0,1.0,81,0.00,,,0.04,WeatherCatV1.11B39,2013-02-16 16:45:00,
2013-02-16 11:50:00,36.4,30.5,29.93,NNW,348,1.0,5.0,79,0.00,,,0.04,WeatherCatV1.11B39,2013-02-16 16:50:00,
2013-02-16 11:55:00,36.4,30.5,29.92,South,172,0.0,1.0,79,0.00,,,0.04,WeatherCatV1.11B39,2013-02-16 16:55:00,
2013-02-16 12:00:00,36.7,30.8,29.92,SSW,207,0.0,1.0,79,0.00,,,0.04,WeatherCatV1.11B39,2013-02-16 17:00:00,
2013-02-16 12:05:00,36.9,30.7,29.92,NNW,332,1.0,2.0,78,0.00,,,0.04,WeatherCatV1.11B39,2013-02-16 17:05:00,
2013-02-16 12:10:00,37.0,30.8,29.92,North,11,0.0,0.0,78,0.00,,,0.04,WeatherCatV1.11B39,2013-02-16 17:10:00,
2013-02-16 12:15:00,37.1,30.2,29.91,NNW,346,0.0,2.0,76,0.00,,,0.04,WeatherCatV1.11B39,2013-02-16 17:15:00,
2013-02-16 12:20:00,37.3,30.8,29.91,North,356,2.0,4.0,77,0.00,,,0.04,WeatherCatV1.11B39,2013-02-16 17:20:00,
2013-02-16 12:25:00,37.5,30.0,29.91,NE,39,2.0,5.0,74,0.00,,,0.04,WeatherCatV1.11B39,2013-02-16 17:25:00,
2013-02-16 12:30:00,37.6,29.7,29.91,SSE,162,0.0,3.0,73,0.00,,,0.04,WeatherCatV1.11B39,2013-02-16 17:30:00,
2013-02-16 12:35:00,37.7,28.8,29.91,SSE,162,0.0,7.0,70,0.00,,,0.04,WeatherCatV1.11B39,2013-02-16 17:35:00,
2013-02-16 12:40:00,37.5,28.6,29.91,NNE,21,0.0,2.0,70,0.00,,,0.04,WeatherCatV1.11B39,2013-02-16 17:40:00,
2013-02-16 12:45:00,37.7,28.8,29.90,North,355,0.0,3.0,70,0.00,,,0.04,WeatherCatV1.11B39,2013-02-16 17:45:00,
2013-02-16 12:50:00,38.0,29.4,29.90,SE,135,0.0,0.0,71,0.00,,,0.04,WeatherCatV1.11B39,2013-02-16 17:50:00,
2013-02-16 12:55:00,38.5,29.6,29.90,WSW,240,0.0,2.0,70,0.00,,,0.04,WeatherCatV1.11B39,2013-02-16 17:55:00,
2013-02-16 13:00:00,38.5,28.5,29.89,NW,314,3.0,3.0,67,0.00,,,0.04,WeatherCatV1.11B39,2013-02-16 18:00:00,
2013-02-16 13:05:00,38.3,28.7,29.89,NNE,23,0.0,2.0,68,0.00,,,0.04,WeatherCatV1.11B39,2013-02-16 18:05:00,
2013-02-16 13:10:00,38.4,29.1,29.89,NNE,23,0.0,0.0,69,0.00,,,0.04,WeatherCatV1.11B39,2013-02-16 18:10:00,
2013-02-16 13:15:00,38.8,29.2,29.89,NW,305,1.0,2.0,68,0.00,,,0.04,WeatherCatV1.11B39,2013-02-16 18:15:00,
2013-02-16 13:20:00,38.8,28.8,29.89,SW,226,0.0,1.0,67,0.00,,,0.04,WeatherCatV1.11B39,2013-02-16 18:20:00,
2013-02-16 13:25:00,38.7,28.7,29.89,North,0,1.0,3.0,67,0.00,,,0.04,WeatherCatV1.11B39,2013-02-16 18:25:00,
2013-02-16 13:30:00,38.6,28.2,29.89,NNW,333,2.0,3.0,66,0.00,,,0.04,WeatherCatV1.11B39,2013-02-16 18:30:00,
2013-02-16 13:35:00,38.4,28.0,29.89,North,351,1.0,1.0,66,0.00,,,0.04,WeatherCatV1.11B39,2013-02-16 18:35:00,
2013-02-16 13:40:00,38.4,28.4,29.89,SE,135,0.0,1.0,67,0.00,,,0.04,WeatherCatV1.11B39,2013-02-16 18:40:00,
2013-02-16 13:45:00,38.5,28.5,29.89,SSW,201,1.0,1.0,67,0.00,,,0.04,WeatherCatV1.11B39,2013-02-16 18:45:00,
2013-02-16 13:50:00,38.5,28.1,29.89,SSE,150,0.0,2.0,66,0.00,,,0.04,WeatherCatV1.11B39,2013-02-16 18:50:00,
2013-02-16 13:55:00,38.4,27.7,29.89,SSW,207,0.0,4.0,65,0.00,,,0.04,WeatherCatV1.11B39,2013-02-16 18:55:00,
2013-02-16 14:00:00,38.5,28.1,29.88,North,356,0.0,1.0,66,0.00,,,0.04,WeatherCatV1.11B39,2013-02-16 19:00:00,
2013-02-16 14:05:00,38.7,28.3,29.88,NNW,345,1.0,2.0,66,0.00,,,0.04,WeatherCatV1.11B39,2013-02-16 19:05:00,
2013-02-16 14:10:00,38.7,27.6,29.88,NNE,21,0.0,3.0,64,0.00,,,0.04,WeatherCatV1.11B39,2013-02-16 19:10:00,
2013-02-16 14:15:00,38.6,27.5,29.88,NNW,337,0.0,2.0,64,0.00,,,0.04,WeatherCatV1.11B39,2013-02-16 19:15:00,
2013-02-16 14:20:00,38.8,28.1,29.88,SW,234,0.0,1.0,65,0.00,,,0.04,WeatherCatV1.11B39,2013-02-16 19:20:00,
2013-02-16 14:25:00,39.0,28.2,29.88,NE,47,0.0,1.0,65,0.00,,,0.04,WeatherCatV1.11B39,2013-02-16 19:25:00,
2013-02-16 14:30:00,39.0,27.9,29.88,NNW,348,0.0,1.0,64,0.00,,,0.04,WeatherCatV1.11B39,2013-02-16 19:30:00,
2013-02-16 14:35:00,39.0,28.2,29.87,North,353,0.0,0.0,65,0.00,,,0.04,WeatherCatV1.11B39,2013-02-16 19:35:00,
2013-02-16 14:40:00,38.9,27.8,29.87,NW,308,0.0,2.0,64,0.00,,,0.04,WeatherCatV1.11B39,2013-02-16 19:40:00,
2013-02-16 14:45:00,38.9,28.2,29.87,North,0,1.0,1.0,65,0.00,,,0.04,WeatherCatV1.11B39,2013-02-16 19:45:00,
2013-02-16 14:50:00,39.0,28.2,29.87,North,358,0.0,0.0,65,0.00,,,0.04,WeatherCatV1.11B39,2013-02-16 19:50:00,
2013-02-16 14:55:00,39.1,28.0,29.87,NE,41,0.0,0.0,64,0.00,,,0.04,WeatherCatV1.11B39,2013-02-16 19:55:00,
2013-02-16 15:00:00,39.2,27.7,29.87,NNE,15,1.0,4.0,63,0.00,,,0.04,WeatherCatV1.11B39,2013-02-16 20:00:00,
2013-02-16 15:05:00,39.1,28.0,29.86,NNE,19,1.0,1.0,64,0.00,,,0.04,WeatherCatV1.11B39,2013-02-16 20:05:00,
2013-02-16 15:10:00,38.9,27.4,29.86,WSW,253,0.0,5.0,63,0.00,,,0.04,WeatherCatV1.11B39,2013-02-16 20:10:00,
2013-02-16 15:15:00,38.9,27.4,29.86,SSW,195,0.0,3.0,63,0.00,,,0.04,WeatherCatV1.11B39,2013-02-16 20:15:00,
2013-02-16 15:20:00,38.9,27.8,29.86,North,5,1.0,1.0,64,0.00,,,0.04,WeatherCatV1.11B39,2013-02-16 20:20:00,
2013-02-16 15:25:00,38.9,27.4,29.86,South,188,0.0,1.0,63,0.00,,,0.04,WeatherCatV1.11B39,2013-02-16 20:25:00,
2013-02-16 15:30:00,39.0,27.5,29.86,North,1,0.0,1.0,63,0.00,,,0.04,WeatherCatV1.11B39,2013-02-16 20:30:00,
2013-02-16 15:35:00,39.0,27.5,29.86,NW,314,0.0,1.0,63,0.00,,,0.04,WeatherCatV1.11B39,2013-02-16 20:35:00,
2013-02-16 15:40:00,39.1,27.2,29.86,NW,315,0.0,0.0,62,0.00,,,0.04,WeatherCatV1.11B39,2013-02-16 20:40:00,
2013-02-16 15:45:00,39.0,26.7,29.86,North,5,0.0,2.0,61,0.00,,,0.04,WeatherCatV1.11B39,2013-02-16 20:45:00,
2013-02-16 15:50:00,38.9,27.4,29.85,ESE,112,0.0,0.0,63,0.00,,,0.04,WeatherCatV1.11B39,2013-02-16 20:50:00,
2013-02-16 15:55:00,38.9,26.6,29.85,NNE,20,1.0,1.0,61,0.00,,,0.04,WeatherCatV1.11B39,2013-02-16 20:55:00,
2013-02-16 16:00:00,38.8,26.5,29.85,NNW,346,1.0,1.0,61,0.00,,,0.04,WeatherCatV1.11B39,2013-02-16 21:00:00,
2013-02-16 16:05:00,38.6,26.3,29.85,NNW,329,0.0,2.0,61,0.00,,,0.04,WeatherCatV1.11B39,2013-02-16 21:05:00,
2013-02-16 16:10:00,38.7,26.8,29.85,NNW,327,0.0,1.0,62,0.00,,,0.04,WeatherCatV1.11B39,2013-02-16 21:10:00,
2013-02-16 16:15:00,38.6,26.3,29.85,North,352,0.0,1.0,61,0.00,,,0.04,WeatherCatV1.11B39,2013-02-16 21:15:00,
2013-02-16 16:20:00,38.6,26.7,29.85,SW,217,0.0,0.0,62,0.00,,,0.04,WeatherCatV1.11B39,2013-02-16 21:20:00,
2013-02-16 16:25:00,38.6,26.7,29.85,NNE,17,0.0,2.0,62,0.00,,,0.04,WeatherCatV1.11B39,2013-02-16 21:25:00,
2013-02-16 16:30:00,38.5,26.2,29.84,North,4,2.0,2.0,61,0.00,,,0.04,WeatherCatV1.11B39,2013-02-16 21:30:00,
2013-02-16 16:35:00,38.4,26.5,29.84,NNW,330,1.0,2.0,62,0.00,,,0.04,WeatherCatV1.11B39,2013-02-16 21:35:00,
2013-02-16 16:40:00,38.3,26.4,29.84,North,354,0.0,1.0,62,0.00,,,0.04,WeatherCatV1.11B39,2013-02-16 21:40:00,
2013-02-16 16:45:00,38.2,26.7,29.84,North,11,1.0,2.0,63,0.00,,,0.04,WeatherCatV1.11B39,2013-02-16 21:45:00,
2013-02-16 16:50:00,38.1,26.6,29.84,SSE,152,0.0,0.0,63,0.00,,,0.04,WeatherCatV1.11B39,2013-02-16 21:50:00,
2013-02-16 16:55:00,37.9,26.8,29.84,SSE,153,0.0,0.0,64,0.00,,,0.04,WeatherCatV1.11B39,2013-02-16 21:55:00,
2013-02-16 17:00:00,37.8,26.4,29.84,SSE,152,0.0,0.0,63,0.00,,,0.04,WeatherCatV1.11B39,2013-02-16 22:00:00,
2013-02-16 17:05:00,37.7,26.6,29.84,SSE,153,0.0,0.0,64,0.00,,,0.04,WeatherCatV1.11B39,2013-02-16 22:05:00,
2013-02-16 17:10:00,37.5,26.4,29.84,SSE,152,0.0,0.0,64,0.00,,,0.04,WeatherCatV1.11B39,2013-02-16 22:10:00,
2013-02-16 17:15:00,37.3,26.3,29.84,SSE,152,1.0,1.0,64,0.00,,,0.04,WeatherCatV1.11B39,2013-02-16 22:15:00,
2013-02-16 17:20:00,37.3,26.6,29.84,North,358,0.0,0.0,65,0.00,,,0.04,WeatherCatV1.11B39,2013-02-16 22:20:00,
2013-02-16 17:25:00,37.1,26.1,29.84,North,358,0.0,0.0,64,0.00,,,0.04,WeatherCatV1.11B39,2013-02-16 22:25:00,
2013-02-16 17:30:00,37.0,26.0,29.84,North,359,0.0,0.0,64,0.00,,,0.04,WeatherCatV1.11B39,2013-02-16 22:30:00,
2013-02-16 17:35:00,37.0,26.0,29.84,North,359,0.0,0.0,64,0.00,,,0.04,WeatherCatV1.11B39,2013-02-16 22:35:00,
2013-02-16 17:40:00,36.9,26.2,29.84,North,359,0.0,0.0,65,0.00,,,0.04,WeatherCatV1.11B39,2013-02-16 22:40:00,
2013-02-16 17:45:00,36.8,26.5,29.84,North,358,0.0,0.0,66,0.00,,,0.04,WeatherCatV1.11B39,2013-02-16 22:45:00,
2013-02-16 17:50:00,36.7,26.4,29.84,North,358,0.0,0.0,66,0.00,,,0.04,WeatherCatV1.11B39,2013-02-16 22:50:00,
2013-02-16 17:55:00,36.7,26.1,29.84,SSE,158,0.0,0.0,65,0.00,,,0.04,WeatherCatV1.11B39,2013-02-16 22:55:00,
2013-02-16 18:00:00,36.7,26.1,29.84,SSE,158,0.0,0.0,65,0.00,,,0.04,WeatherCatV1.11B39,2013-02-16 23:00:00,
2013-02-16 18:05:00,36.7,26.1,29.84,SSE,158,0.0,0.0,65,0.00,,,0.04,WeatherCatV1.11B39,2013-02-16 23:05:00,
2013-02-16 18:10:00,36.7,26.4,29.84,SSE,158,0.0,0.0,66,0.00,,,0.04,WeatherCatV1.11B39,2013-02-16 23:10:00,
2013-02-16 18:15:00,36.7,26.4,29.84,SSE,158,0.0,0.0,66,0.00,,,0.04,WeatherCatV1.11B39,2013-02-16 23:15:00,
2013-02-16 18:20:00,36.8,26.2,29.84,WNW,297,1.0,2.0,65,0.00,,,0.04,WeatherCatV1.11B39,2013-02-16 23:20:00,
2013-02-16 18:25:00,36.9,25.5,29.84,West,278,0.0,1.0,63,0.00,,,0.04,WeatherCatV1.11B39,2013-02-16 23:25:00,
2013-02-16 18:30:00,36.9,24.7,29.84,North,6,2.0,3.0,61,0.00,,,0.04,WeatherCatV1.11B39,2013-02-16 23:30:00,
2013-02-16 18:35:00,37.0,24.4,29.84,NNE,23,0.0,1.0,60,0.00,,,0.04,WeatherCatV1.11B39,2013-02-16 23:35:00,
2013-02-16 18:40:00,36.9,24.7,29.84,NW,319,0.0,1.0,61,0.00,,,0.04,WeatherCatV1.11B39,2013-02-16 23:40:00,
2013-02-16 18:45:00,36.8,24.6,29.85,WSW,245,0.0,1.0,61,0.00,,,0.04,WeatherCatV1.11B39,2013-02-16 23:45:00,
2013-02-16 18:50:00,36.7,24.5,29.85,WSW,249,0.0,1.0,61,0.00,,,0.04,WeatherCatV1.11B39,2013-02-16 23:50:00,
2013-02-16 18:55:00,36.7,24.1,29.85,NW,314,2.0,4.0,60,0.00,,,0.04,WeatherCatV1.11B39,2013-02-16 23:55:00,
2013-02-16 19:00:00,36.6,24.0,29.85,North,350,4.0,4.0,60,0.00,,,0.04,WeatherCatV1.11B39,2013-02-17 00:00:00,
2013-02-16 19:05:00,36.6,23.2,29.84,SSE,156,0.0,6.0,58,0.00,,,0.04,WeatherCatV1.11B39,2013-02-17 00:05:00,
2013-02-16 19:10:00,36.5,23.1,29.84,WNW,302,0.0,9.0,58,0.00,,,0.04,WeatherCatV1.11B39,2013-02-17 00:10:00,
2013-02-16 19:15:00,36.3,23.0,29.84,North,351,0.0,1.0,58,0.00,,,0.04,WeatherCatV1.11B39,2013-02-17 00:15:00,
2013-02-16 19:20:00,36.2,23.3,29.84,NNE,20,0.0,1.0,59,0.00,,,0.04,WeatherCatV1.11B39,2013-02-17 00:20:00,
2013-02-16 19:25:00,36.1,22.8,29.84,ESE,115,1.0,2.0,58,0.00,,,0.04,WeatherCatV1.11B39,2013-02-17 00:25:00,
2013-02-16 19:30:00,36.0,22.3,29.84,NW,304,0.0,3.0,57,0.00,,,0.04,WeatherCatV1.11B39,2013-02-17 00:30:00,
2013-02-16 19:35:00,35.9,22.2,29.83,North,6,1.0,4.0,57,0.00,,,0.04,WeatherCatV1.11B39,2013-02-17 00:35:00,
2013-02-16 19:40:00,35.7,22.0,29.83,SSW,202,0.0,2.0,57,0.00,,,0.04,WeatherCatV1.11B39,2013-02-17 00:40:00,
2013-02-16 19:45:00,35.5,22.2,29.83,NE,36,0.0,3.0,58,0.00,,,0.04,WeatherCatV1.11B39,2013-02-17 00:45:00,
2013-02-16 19:50:00,35.4,21.7,29.83,East,86,0.0,2.0,57,0.00,,,0.04,WeatherCatV1.11B39,2013-02-17 00:50:00,
2013-02-16 19:55:00,35.3,21.2,29.83,North,355,2.0,2.0,56,0.00,,,0.04,WeatherCatV1.11B39,2013-02-17 00:55:00,
2013-02-16 20:00:00,35.2,21.5,29.82,NNW,340,0.0,2.0,57,0.00,,,0.04,WeatherCatV1.11B39,2013-02-17 01:00:00,
2013-02-16 20:05:00,35.0,21.3,29.82,SSE,159,0.0,0.0,57,0.00,,,0.04,WeatherCatV1.11B39,2013-02-17 01:05:00,
2013-02-16 20:10:00,34.9,21.2,29.82,North,356,2.0,5.0,57,0.00,,,0.04,WeatherCatV1.11B39,2013-02-17 01:10:00,
2013-02-16 20:15:00,34.8,20.7,29.82,North,352,1.0,4.0,56,0.00,,,0.04,WeatherCatV1.11B39,2013-02-17 01:15:00,
2013-02-16 20:20:00,34.7,20.2,29.82,North,351,2.0,6.0,55,0.00,,,0.04,WeatherCatV1.11B39,2013-02-17 01:20:00,
2013-02-16 20:25:00,34.6,20.5,29.82,North,1,0.0,2.0,56,0.00,,,0.04,WeatherCatV1.11B39,2013-02-17 01:25:00,
2013-02-16 20:31:00,34.5,20.4,29.82,NNW,346,2.0,6.0,56,0.00,,,0.04,WeatherCatV1.11B39,2013-02-17 01:31:00,
2013-02-16 20:36:00,34.4,19.9,29.82,NW,306,1.0,3.0,55,0.00,,,0.04,WeatherCatV1.11B39,2013-02-17 01:36:00,
2013-02-16 20:41:00,34.3,20.3,29.81,North,4,2.0,5.0,56,0.00,,,0.04,WeatherCatV1.11B39,2013-02-17 01:41:00,
2013-02-16 20:46:00,34.2,20.2,29.82,SSW,198,0.0,2.0,56,0.00,,,0.04,WeatherCatV1.11B39,2013-02-17 01:46:00,
2013-02-16 20:51:00,34.1,20.5,29.81,SSE,153,0.0,0.0,57,0.00,,,0.04,WeatherCatV1.11B39,2013-02-17 01:51:00,
2013-02-16 20:56:00,34.0,20.4,29.81,SSW,193,0.0,1.0,57,0.00,,,0.04,WeatherCatV1.11B39,2013-02-17 01:56:00,
2013-02-16 21:01:00,33.9,19.9,29.81,North,5,2.0,2.0,56,0.00,,,0.04,WeatherCatV1.11B39,2013-02-17 02:01:00,
2013-02-16 21:06:00,33.8,19.8,29.82,North,0,0.0,2.0,56,0.00,,,0.04,WeatherCatV1.11B39,2013-02-17 02:06:00,
2013-02-16 21:11:00,33.7,19.7,29.81,NNE,18,1.0,2.0,56,0.00,,,0.04,WeatherCatV1.11B39,2013-02-17 02:11:00,
2013-02-16 21:16:00,33.6,20.0,29.81,West,280,0.0,1.0,57,0.00,,,0.04,WeatherCatV1.11B39,2013-02-17 02:16:00,
2013-02-16 21:21:00,33.5,19.1,29.80,NNE,24,0.0,3.0,55,0.00,,,0.04,WeatherCatV1.11B39,2013-02-17 02:21:00,
2013-02-16 21:26:00,33.4,19.4,29.80,West,259,1.0,3.0,56,0.00,,,0.04,WeatherCatV1.11B39,2013-02-17 02:26:00,
2013-02-16 21:31:00,33.3,19.3,29.80,NNW,329,0.0,5.0,56,0.00,,,0.04,WeatherCatV1.11B39,2013-02-17 02:31:00,
2013-02-16 21:36:00,33.2,18.8,29.80,North,6,4.0,8.0,55,0.00,,,0.04,WeatherCatV1.11B39,2013-02-17 02:36:00,
2013-02-16 21:41:00,33.1,18.7,29.80,SW,215,0.0,3.0,55,0.00,,,0.04,WeatherCatV1.11B39,2013-02-17 02:41:00,
2013-02-16 21:46:00,33.1,19.1,29.80,SSW,212,1.0,3.0,56,0.00,,,0.04,WeatherCatV1.11B39,2013-02-17 02:46:00,
2013-02-16 21:51:00,32.9,18.5,29.80,NNW,333,1.0,4.0,55,0.00,,,0.04,WeatherCatV1.11B39,2013-02-17 02:51:00,
2013-02-16 21:56:00,32.9,18.9,29.80,NNW,331,1.0,4.0,56,0.00,,,0.04,WeatherCatV1.11B39,2013-02-17 02:56:00,
2013-02-16 22:01:00,32.8,18.4,29.80,SSE,160,0.0,5.0,55,0.00,,,0.04,WeatherCatV1.11B39,2013-02-17 03:01:00,
2013-02-16 22:06:00,32.7,18.3,29.80,NNE,29,2.0,3.0,55,0.00,,,0.04,WeatherCatV1.11B39,2013-02-17 03:06:00,
2013-02-16 22:11:00,32.6,18.7,29.79,North,1,1.0,2.0,56,0.00,,,0.04,WeatherCatV1.11B39,2013-02-17 03:11:00,
2013-02-16 22:16:00,32.6,18.7,29.79,North,4,2.0,2.0,56,0.00,,,0.04,WeatherCatV1.11B39,2013-02-17 03:16:00,
2013-02-16 22:21:00,32.5,19.0,29.79,North,1,1.0,2.0,57,0.00,,,0.04,WeatherCatV1.11B39,2013-02-17 03:21:00,
2013-02-16 22:26:00,32.4,18.1,29.79,NNW,343,0.0,9.0,55,0.00,,,0.04,WeatherCatV1.11B39,2013-02-17 03:26:00,
2013-02-16 22:31:00,32.3,18.8,29.78,NNE,18,0.0,2.0,57,0.00,,,0.04,WeatherCatV1.11B39,2013-02-17 03:31:00,
2013-02-16 22:36:00,32.1,18.6,29.77,WNW,285,0.0,4.0,57,0.00,,,0.04,WeatherCatV1.11B39,2013-02-17 03:36:00,
2013-02-16 22:41:00,32.0,18.5,29.77,NE,54,2.0,4.0,57,0.00,,,0.04,WeatherCatV1.11B39,2013-02-17 03:41:00,
2013-02-16 22:46:00,31.9,18.0,29.77,WSW,255,2.0,4.0,56,0.00,,,0.04,WeatherCatV1.11B39,2013-02-17 03:46:00,
2013-02-16 22:51:00,31.8,17.9,29.77,North,356,2.0,6.0,56,0.00,,,0.04,WeatherCatV1.11B39,2013-02-17 03:51:00,
2013-02-16 22:56:00,31.7,17.8,29.76,NNW,329,1.0,3.0,56,0.00,,,0.04,WeatherCatV1.11B39,2013-02-17 03:56:00,
2013-02-16 23:01:00,31.6,18.1,29.75,North,9,0.0,5.0,57,0.00,,,0.04,WeatherCatV1.11B39,2013-02-17 04:01:00,
2013-02-16 23:06:00,31.5,18.0,29.75,North,11,1.0,2.0,57,0.00,,,0.04,WeatherCatV1.11B39,2013-02-17 04:06:00,
2013-02-16 23:11:00,31.4,18.4,29.75,North,351,0.0,1.0,58,0.00,,,0.04,WeatherCatV1.11B39,2013-02-17 04:11:00,
2013-02-16 23:16:00,31.3,18.3,29.75,ENE,72,0.0,5.0,58,0.00,,,0.04,WeatherCatV1.11B39,2013-02-17 04:16:00,
2013-02-16 23:21:00,31.2,18.6,29.75,North,356,0.0,6.0,59,0.00,,,0.04,WeatherCatV1.11B39,2013-02-17 04:21:00,
2013-02-16 23:26:00,31.0,18.4,29.74,West,274,2.0,8.0,59,0.00,,,0.04,WeatherCatV1.11B39,2013-02-17 04:26:00,
2013-02-16 23:31:00,30.9,18.7,29.75,NW,313,0.0,4.0,60,0.00,,,0.04,WeatherCatV1.11B39,2013-02-17 04:31:00,
2013-02-16 23:36:00,30.8,18.6,29.74,North,5,2.0,4.0,60,0.00,,,0.04,WeatherCatV1.11B39,2013-02-17 04:36:00,
2013-02-16 23:41:00,30.7,19.2,29.74,NE,41,2.0,2.0,62,0.00,,,0.04,WeatherCatV1.11B39,2013-02-17 04:41:00,
2013-02-16 23:46:00,30.6,19.1,29.74,North,359,0.0,1.0,62,0.00,,,0.04,WeatherCatV1.11B39,2013-02-17 04:46:00,
2013-02-16 23:51:00,30.5,19.4,29.74,SW,232,0.0,2.0,63,0.00,,,0.04,WeatherCatV1.11B39,2013-02-17 04:51:00,
2013-02-16 23:56:00,30.3,19.2,29.74,East,101,1.0,5.0,63,0.00,,,0.04,WeatherCatV1.11B39,2013-02-17 04:56:00,